Content
SEND FEEDBACK

Daily
Averages
Monthly
Summary
United States of America

BLACK HAWK, SOUTH DAKOTA


Home > North America > United States > South Dakota
Elevation: 3352 feet     Latitude: 44 05N     Longitude: 103 16W

WEATHER
 
SELECT A DAY
Number of Records: 207,997;   Date Range: 1/1/95 - 10/30/14
 
SHARE

PRINT THIS DATA

[ ← Previous Day ]
WEATHER ALMANAC - OCTOBER 1, 2013
[ Next Day → ]
[ °C ]   °F
Weather ElementAverageHighLow
Temperature58.8 °F70.3 °F (3:58 pm)40.3 °F (5:58 am)
Dewpoint28.9 °F36.9 °F (11:58 pm)22.8 °F (6:58 am)
Humidity33.9 %55 % (5:58 am)21 % (11:58 am)
Barometer29.92 in30.02 in (7:58 am)29.82 in (11:58 pm)
Wind Speed9.5 mph20.7 mph (3:58 pm)
Wind Gust28.8 mph (4:58 pm)
Weather ElementAverage
Visibility10 mi
Wind DirectionSSE (168.4 °)

Weather ElementTotal
Precipitation---
Heating Degree Days9.7 (Base 65)
Growing Degree Days5.3 (Base 50)
Averaged from 25 records on October 1, 2013
WEATHER CONDITIONS BREAKOUT
WIND DIRECTION BREAKOUT
WEATHER BY HOUR - OCTOBER 1, 2013
[ °C ]   °F
Local TimeTemperatureDewpointHumidityBarometerVisibilityWind DirectionWind SpeedGust SpeedPrecipitationEventsConditions
1:58 AM55.0 °F24.8 °F31 %29.85 in10.0 miWest (280°)1.2 mphScattered Clouds
2:58 AM51.3 °F23.9 °F34 %29.86 in10.0 miSW (230°)6.9 mphClear
3:58 AM45.3 °F26.1 °F47 %29.89 in10.0 miSouth (190°)2.3 mphClear
4:58 AM45.7 °F24.4 °F43 %29.91 in10.0 miWNW (300°)8.1 mphClear
5:58 AM40.3 °F25.3 °F55 %29.97 in10.0 miSW (230°)3.5 mphClear
6:58 AM45.3 °F22.8 °F41 %30.00 in10.0 miWSW (250°)5.8 mphClear
7:58 AM46.6 °F28.2 °F49 %30.02 in10.0 miSW (230°)5.8 mphClear
8:58 AM55.4 °F25.9 °F32 %30.01 in10.0 miWest (260°)5.8 mphClear
9:58 AM60.8 °F24.3 °F25 %30.02 in10.0 miVariable4.6 mphClear
10:58 AM62.8 °F23.0 °F22 %30.00 in10.0 miCalmClear
11:58 AM64.2 °F23.4 °F21 %29.98 in10.0 miVariable2.3 mphClear
12:58 PM66.4 °F25.7 °F22 %29.95 in10.0 miSE (140°)12.7 mph18.4 mphClear
1:12 PM68.0 °F28.4 °F23 %29.97 in10.0 miSSE (160°)11.5 mphClear
1:52 PM69.8 °F28.4 °F21 %29.95 in10.0 miSouth (190°)16.1 mph26.5 mphClear
1:58 PM68.9 °F28.0 °F22 %29.92 in10.0 miSouth (170°)18.4 mph26.5 mphClear
2:58 PM70.2 °F31.8 °F24 %29.90 in10.0 miSouth (170°)16.1 mph25.3 mphClear
3:58 PM70.3 °F32.7 °F25 %29.88 in10.0 miSSE (160°)20.7 mph26.5 mphClear
4:58 PM69.4 °F34.2 °F27 %29.88 in10.0 miSE (140°)18.4 mph28.8 mphClear
5:58 PM66.6 °F33.8 °F30 %29.89 in10.0 miSE (140°)18.4 mphClear
6:58 PM61.2 °F34.5 °F37 %29.89 in10.0 miSE (140°)12.7 mphClear
7:58 PM58.8 °F33.6 °F39 %29.89 in10.0 miSE (130°)12.7 mphClear
8:58 PM57.6 °F32.9 °F39 %29.87 in10.0 miSouth (170°)10.4 mphClear
9:58 PM56.3 °F34.7 °F44 %29.85 in10.0 miSouth (170°)8.1 mphClear
10:58 PM55.8 °F35.6 °F47 %29.84 in10.0 miSSE (160°)9.2 mphClear
11:58 PM57.2 °F36.9 °F47 %29.82 in10.0 miSSW (200°)6.9 mphClear
Hourly data recorded from KRCA, located miles away from Black Hawk, South Dakota







STORIES FROM OUR PARTNERS